Vertical_Velocity
-5 -2 -7 -5 7 2 4 1 4 3 7 4 11 6 10 16 3 7 -3 8 11 8 5 -6 -4 -3 -5 0 -2 -2 1 -10 -0 -3 -2 -2 -1 -2 -1 3 -0 0 -3 -5 4 1 -6 -2 -2 2 2 -1 2 -4
1 -5 -1 -6 -9 4 2 -6 2 -2 6 8 11 10 1 5 1 12 3 10 -2 -3 -2 -3 1 4 3 -1 1 -3 0 2 5 4 2 -1 -1 2 4 -4 0 -1 -5 -2 -8 -3 -2 -1 2 5 -2 4 2 -3
0 -2 -1 -1 1 -8 5 -5 -7 -0 -6 11 3 2 1 2 -1 12 4 -3 -4 -6 -5 -2 3 1 1 5 4 -0 -2 4 2 5 -2 0 -1 -1 2 -1 2 -0 1 -3 6 0 3 3 -2 -7 3 0 -0 -2
-1 5 -1 -2 -1 -1 2 6 -2 -9 -2 -5 -2 11 5 9 -1 -3 -1 -8 -1 -0 -9 -4 3 1 2 -1 -2 2 3 3 4 5 3 4 6 2 -2 0 1 -1 4 2 -0 9 -6 2 -5 3 -2 1 -1 0
2 -0 1 2 -1 3 2 -4 1 4 0 -4 4 -5 -4 7 4 -2 7 3 -1 1 -7 -3 4 -3 3 2 -3 2 2 1 -1 1 1 -0 0 1 3 2 -5 2 1 1 -5 2 1 0 2 -2 -1 1 -0 -3
-3 -1 2 2 1 2 4 -3 -6 1 3 4 0 2 3 11 -9 -2 1 -3 -2 -1 -1 -5 -4 -3 2 -0 -2 3 2 0 1 2 -0 -1 3 0 -1 -5 2 2 2 3 0 4 3 -0 1 0 0 -1 -1 -1
-5 6 0 1 -0 -0 4 4 -0 -4 -1 8 -1 7 6 -1 4 3 5 0 2 6 0 0 -4 -5 -4 -3 -1 -0 1 -0 3 1 -2 3 2 1 -0 -1 9 4 1 2 -0 0 0 3 1 -0 1 0 -1 -2
-0 0 4 -3 -3 2 0 6 3 -1 -1 3 1 2 4 -2 4 -1 4 1 0 -1 4 -2 -4 -1 -0 -3 0 1 2 1 0 -1 -4 -0 -2 2 -2 -4 -2 -3 -3 1 -1 -2 -1 3 -0 1 -0 -3 -2 -1
2 8 -3 1 -0 2 5 -1 11 -0 1 -5 4 4 5 4 -1 1 1 4 1 1 -0 -2 0 -3 -3 1 2 -2 -0 -3 -1 -3 -2 -1 2 -4 -1 1 2 -1 -0 -1 1 -3 1 -1 1 1 -2 -4 -2 -0
7 0 -7 -4 4 3 2 12 10 9 -15 14 9 5 -2 -3 11 1 10 -2 -6 -2 -3 -5 -1 1 6 4 0 -1 -6 -2 2 -2 1 -0 -2 -0 -2 2 1 3 0 1 -0 -1 1 3 2 4 0 -1 -3 -3
5 11 -10 -2 3 4 2 12 -3 14 6 -8 -6 -0 4 9 6 -2 -1 4 2 0 -3 -3 0 7 4 2 1 -4 2 1 -0 1 1 2 -3 -0 -0 0 0 1 -0 1 0 -0 1 -1 -2 -1 -0 -0 0 -1
3 9 7 -8 5 8 1 -0 11 6 -0 8 10 10 10 -0 1 -4 -5 -1 -1 -1 -3 1 -2 4 1 3 -2 -0 -0 -1 2 2 -3 -3 -3 0 -1 -1 1 -1 -0 1 0 1 2 0 -2 -0 -2 -1 0 -0
-1 9 9 10 -11 5 3 17 -13 4 8 9 -2 10 1 -8 6 -3 -4 -4 -6 -4 -1 -1 -1 -3 3 -1 3 -3 0 -1 4 -0 -1 -3 1 -1 -1 0 -1 -2 1 1 1 0 -0 -0 -2 -2 0 0 -0 -0
8 16 10 5 6 0 -0 -2 3 27 -6 9 6 -1 -3 -1 2 -9 -7 -5 -1 -2 -3 -1 -1 5 1 -3 -2 -0 0 0 -2 -0 -2 1 -3 -2 1 -1 -2 2 0 0 1 -0 0 0 -0 -1 -1 -1 -1 0
7 6 7 6 -4 -5 7 6 5 31 13 13 4 -2 -5 -5 -8 -1 4 6 1 -4 3 3 4 -2 -1 0 -5 -1 -1 0 -1 -3 0 -4 -1 1 1 -1 2 1 1 1 -0 -1 -1 -2 -1 -1 -0 -1 -1 0
2 -3 -17 2 -3 19 -12 14 17 34 10 9 -1 -3 -6 -3 0 2 1 -3 -0 2 7 4 -4 -2 -1 -3 -2 -1 1 -3 -2 -1 -2 -1 2 0 0 0 0 -1 1 -1 -1 -0 -2 -1 0 0 -1 -1 -0 0
8 -2 -21 -8 1 16 5 17 40 32 21 6 3 -10 -3 -5 3 1 -2 -7 -2 4 -3 0 -0 0 1 -3 -1 1 -5 -1 -0 -0 2 1 -1 -0 -0 0 -1 -0 0 -1 0 -1 -1 0 0 0 -1 -1 -0 -1
3 1 1 13 7 5 35 24 33 13 -4 4 6 -6 -1 4 0 -6 -7 -2 -1 -3 2 0 -2 1 0 -1 -2 -2 -2 -2 0 2 1 -0 -1 -0 -0 -1 -1 -1 -1 -0 -1 -1 0 1 -0 -1 -0 0 0 -1
11 5 2 1 4 9 19 23 8 -2 0 4 -4 8 -2 7 -1 -3 -3 -1 1 1 -2 -2 2 0 -1 -1 -1 -2 -1 1 1 2 -1 -2 -2 -0 -1 -1 -1 -1 -1 -1 -1 0 1 -0 -0 1 1 1 0 1
23 25 29 25 30 17 6 -1 3 -4 -3 0 4 7 4 3 -3 -3 -2 -2 -2 -0 2 1 -1 -3 -1 1 -0 -2 1 3 0 -2 -2 -1 -1 -1 -1 -0 -1 -2 -2 -1 -1 -0 -0 -1 1 1 1 0 0 -1
3 -0 17 9 7 -1 -0 3 -2 4 3 -1 3 6 -4 -2 -3 -3 0 1 1 0 2 -0 -4 -2 3 1 -0 0 0 -1 -2 -2 -1 -1 -0 -1 -1 -1 -1 -1 -2 -1 -0 -1 -0 0 0 0 0 0 -0 -1
5 0 3 1 3 -1 -4 -1 1 0 -1 -1 2 -2 -1 2 1 1 2 2 -1 -0 -1 -2 -0 2 3 1 -1 -1 -2 -3 -1 0 -0 -1 -2 -1 -1 -1 -2 -2 -1 -1 -0 0 1 1 1 0 -0 0 -1 -1
1 1 2 -2 -3 -5 2 3 0 -1 -0 3 1 2 2 1 1 1 -2 -2 -1 -0 -0 1 3 1 -1 -1 -2 -2 -0 1 0 -1 -2 -2 -1 -1 -1 -1 -2 -1 -1 -0 1 1 0 -0 0 2 0 -1 1 1
7 3 -1 -4 -2 -3 -1 0 2 -1 -2 1 2 -1 -2 -4 -3 -1 -0 0 0 1 1 0 -1 -1 -2 -2 -1 -0 -0 -1 -1 -2 -1 -1 -1 -2 -2 -1 -1 -0 0 0 0 -0 0 0 1 1 0 -0 0 1
-2 -6 0 5 0 0 0 -0 1 -2 -3 -2 -4 -3 -1 1 -0 -0 0 0 1 0 -0 -1 -1 -1 -1 -1 -1 -1 -1 -1 -0 -1 -1 -1 -1 -1 -1 -1 -1 -1 -0 1 0 0 -0 -1 -0 -0 -1 -0 0 1
-8 -4 -4 2 -1 -3 -3 0 0 -1 1 0 -0 -0 -1 0 0 -1 -0 -0 -1 -2 -2 -3 -3 -3 -2 -1 -0 0 -0 -1 -1 -2 -1 -1 -1 -1 -0 -0 -1 -0 0 0 0 -0 -1 -1 -0 -1 -1 -0 1 1
-5 -1 -0 1 -3 -2 -2 -1 -1 -1 -2 -3 -0 -1 -0 -1 -1 -1 -1 -1 -1 -1 -1 -1 -1 -0 0 0 0 0 -0 -1 -1 -1 -1 -1 0 1 0 -0 -1 -0 1 0 -1 -1 -1 -0 1 1 1 1 0 -0
-5 -0 -2 -1 -3 1 -4 -2 -2 -2 -2 -2 -2 -2 -2 -2 -2 -1 -1 -2 -2 -2 -1 0 1 1 -0 0 -0 0 -0 -1 -1 -1 -0 -1 -1 -0 0 -0 -0 1 1 -0 -0 0 0 -1 -0 1 1 1 0 0
-3 -2 -1 -2 -3 -3 -3 -3 -2 -2 -1 -1 -2 -3 -3 -3 -2 -2 -1 -0 1 1 1 0 0 -0 0 0 -0 -1 -2 -1 -1 -0 -0 -0 -0 0 1 0 -0 0 0 0 1 0 0 -0 -0 -0 0 1 1 1
-2 -1 -2 -1 -1 -2 -2 -2 -2 -3 -3 -4 -3 -3 -2 -1 -1 0 1 1 1 0 0 -0 0 0 -0 -1 -1 -0 -0 -0 -0 -0 0 0 1 0 -0 -1 -1 -0 0 0 0 0 0 0 1 1 0 -0 0 1
-0 -1 -1 -2 -2 -2 -2 -2 -3 -3 -3 -2 -1 -1 0 1 1 0 0 0 0 0 -0 -0 0 0 0 0 0 0 -1 -1 -0 0 0 0 0 -0 -0 0 0 0 -0 -1 -1 -1 0 1 1 1 1 1 -0 -0
2 0 0 -0 -1 -0 -0 -0 -0 -0 -1 -2 -1 -1 -1 -2 -2 -1 -1 -0 0 0 1 1 1 0 0 -1 -1 -0 -0 -0 -1 -0 -0 0 1 0 -0 -1 -1 -1 -0 -0 0 0 0 0 0 0 0 -0 -1 -1
0 -0 -0 0 -0 -0 -1 -2 -2 -3 -2 -2 -1 -0 0 0 -0 -0 0 0 0 1 0 0 0 -0 -0 -1 -1 -0 -0 -0 -0 -0 0 -1 -1 -0 -1 -0 0 0 1 1 1 0 0 0 0 0 -0 -1 -1 -1
Height
3057 3062 3065 3070 3074 3077 3080 3082 3086 3090 3093 3097 3100 3102 3104 3105 3106 3107 3109 3109 3111 3110 3109 3110 3111 3111 3111 3111 3111 3111 3110 3105 3102 3100 3098 3095 3092 3089 3087 3083 3081 3081 3080 3076 3075 3075 3068 3063 3063 3066 3062 3057 3052 3049
3050 3055 3060 3062 3066 3070 3073 3075 3079 3082 3086 3089 3091 3092 3094 3096 3098 3100 3101 3102 3102 3105 3105 3104 3103 3103 3103 3103 3102 3102 3102 3100 3098 3094 3093 3090 3087 3083 3081 3081 3078 3076 3075 3075 3072 3065 3061 3060 3057 3056 3054 3052 3048 3043
3041 3045 3050 3055 3058 3062 3065 3070 3073 3076 3078 3083 3085 3086 3087 3089 3089 3093 3094 3095 3095 3097 3098 3096 3097 3097 3097 3096 3094 3094 3093 3094 3091 3089 3087 3086 3083 3078 3075 3072 3070 3068 3068 3067 3065 3060 3057 3055 3051 3049 3048 3045 3041 3037
3030 3035 3040 3045 3050 3053 3057 3062 3066 3070 3072 3074 3076 3079 3081 3083 3084 3086 3086 3088 3090 3090 3091 3091 3091 3090 3089 3087 3087 3088 3085 3083 3082 3081 3079 3077 3075 3071 3069 3068 3065 3066 3061 3057 3056 3056 3052 3050 3045 3044 3042 3039 3035 3033
3019 3025 3030 3035 3040 3045 3048 3051 3056 3060 3065 3069 3070 3071 3073 3076 3076 3078 3079 3079 3080 3085 3083 3082 3081 3081 3082 3081 3081 3079 3077 3075 3073 3073 3071 3070 3068 3068 3063 3058 3057 3058 3054 3054 3048 3047 3047 3044 3041 3038 3037 3034 3030 3026
3012 3016 3021 3024 3030 3035 3039 3043 3047 3050 3054 3058 3062 3064 3065 3068 3069 3070 3069 3070 3072 3074 3075 3073 3071 3072 3074 3073 3073 3072 3069 3067 3067 3066 3065 3062 3061 3064 3058 3054 3053 3050 3049 3047 3046 3044 3041 3039 3036 3034 3032 3029 3025 3021
3003 3008 3012 3017 3021 3026 3031 3034 3038 3044 3047 3049 3051 3054 3056 3058 3061 3060 3063 3064 3065 3067 3068 3065 3061 3062 3064 3066 3066 3065 3063 3062 3061 3059 3057 3058 3055 3059 3050 3048 3047 3045 3045 3043 3041 3041 3037 3035 3031 3029 3026 3023 3020 3016
2993 2999 3003 3008 3012 3018 3023 3027 3031 3036 3040 3042 3043 3046 3050 3052 3053 3054 3056 3058 3060 3064 3063 3061 3056 3058 3058 3059 3059 3058 3057 3055 3053 3052 3053 3052 3052 3050 3044 3040 3040 3038 3039 3037 3034 3035 3034 3032 3028 3024 3021 3018 3015 3009
2985 2989 2993 2999 3004 3009 3015 3020 3023 3026 3031 3035 3040 3044 3046 3046 3047 3050 3052 3053 3054 3059 3055 3052 3053 3053 3050 3051 3050 3050 3050 3050 3048 3045 3046 3046 3043 3042 3040 3038 3036 3035 3035 3034 3032 3031 3030 3027 3024 3020 3016 3012 3007 3003
2975 2978 2984 2991 2995 2999 3006 3011 3016 3019 3021 3030 3034 3036 3035 3039 3044 3049 3047 3047 3046 3047 3044 3044 3047 3047 3048 3046 3045 3048 3046 3046 3040 3041 3042 3038 3035 3034 3034 3033 3031 3031 3029 3029 3028 3028 3026 3023 3021 3016 3010 3006 3001 2996
2967 2970 2973 2982 2987 2993 2999 3002 3004 3010 3016 3022 3022 3027 3031 3035 3040 3043 3045 3042 3037 3036 3035 3035 3037 3039 3042 3041 3042 3044 3043 3040 3038 3038 3038 3034 3030 3031 3029 3029 3028 3026 3025 3025 3024 3024 3022 3019 3016 3011 3006 3001 2997 2992
2959 2962 2966 2970 2977 2985 2991 2995 2998 3006 3007 3014 3019 3023 3030 3032 3035 3037 3035 3033 3030 3034 3031 3029 3031 3035 3036 3036 3037 3040 3041 3040 3035 3031 3031 3029 3028 3026 3026 3025 3024 3023 3023 3023 3021 3020 3018 3014 3010 3005 3001 2998 2994 2989
2951 2953 2957 2962 2970 2980 2984 2984 2991 3002 3003 3011 3015 3021 3024 3027 3026 3021 3021 3020 3023 3023 3025 3026 3029 3032 3032 3033 3035 3037 3037 3036 3031 3030 3026 3023 3024 3024 3023 3022 3021 3021 3021 3019 3018 3016 3013 3009 3005 3001 2998 2994 2990 2986
2942 2945 2950 2956 2961 2972 2978 2985 2985 2995 3001 3006 3009 3013 3015 3013 3010 3010 3013 3016 3019 3021 3022 3024 3025 3027 3027 3031 3033 3034 3033 3030 3030 3026 3021 3021 3022 3022 3020 3019 3019 3019 3017 3016 3013 3011 3008 3005 3001 2997 2994 2990 2987 2983
2931 2936 2941 2947 2956 2964 2973 2978 2981 2987 2993 2995 3003 3003 3002 3003 3006 3009 3010 3010 3013 3016 3020 3021 3020 3025 3025 3028 3028 3030 3030 3025 3024 3020 3019 3020 3019 3018 3017 3016 3016 3015 3013 3011 3008 3006 3003 3000 2996 2993 2990 2986 2983 2980
2923 2928 2931 2940 2950 2960 2963 2971 2973 2982 2984 2987 2994 2992 2995 3002 3005 3002 3004 3008 3010 3016 3016 3017 3018 3020 3021 3023 3023 3024 3022 3020 3020 3019 3018 3017 3016 3015 3014 3013 3011 3010 3008 3005 3002 3000 2997 2994 2992 2989 2986 2983 2980 2977
2919 2924 2928 2935 2943 2952 2963 2968 2969 2974 2976 2975 2978 2987 2992 2997 3001 3001 2997 3007 3009 3010 3012 3016 3015 3014 3015 3017 3018 3016 3016 3018 3018 3016 3015 3013 3012 3011 3010 3008 3006 3004 3001 2998 2995 2993 2991 2989 2987 2985 2982 2979 2976 2974
2917 2922 2926 2932 2943 2951 2958 2964 2969 2968 2968 2969 2975 2984 2990 2994 2994 2996 2999 3003 3006 3007 3011 3012 3013 3012 3011 3011 3012 3013 3014 3015 3014 3012 3011 3009 3008 3006 3004 3002 3000 2998 2995 2992 2990 2988 2987 2985 2983 2981 2979 2977 2974 2971
2915 2922 2928 2934 2941 2946 2950 2954 2957 2960 2965 2969 2976 2982 2987 2989 2990 2994 2998 3001 3003 3006 3008 3010 3010 3008 3008 3009 3010 3010 3011 3010 3009 3007 3006 3004 3003 3002 2999 2997 2995 2993 2991 2989 2987 2986 2984 2982 2980 2978 2976 2974 2972 2970
2911 2916 2922 2928 2936 2943 2949 2954 2958 2962 2967 2971 2976 2979 2983 2986 2990 2994 2998 3000 3002 3005 3006 3006 3006 3006 3007 3007 3006 3006 3006 3005 3004 3002 3002 3001 2999 2998 2996 2994 2992 2990 2989 2987 2986 2984 2982 2980 2978 2976 2974 2972 2970 2968
2924 2928 2933 2937 2939 2946 2948 2951 2957 2963 2967 2972 2976 2978 2982 2987 2991 2996 2998 2999 3000 3001 3001 3002 3003 3004 3003 3002 3002 3002 3001 3001 3000 2999 2999 2998 2996 2995 2994 2992 2990 2988 2987 2986 2984 2982 2980 2978 2976 2974 2972 2970 2968 2967
2931 2934 2937 2939 2942 2947 2951 2954 2957 2961 2968 2972 2977 2981 2985 2989 2992 2994 2995 2996 2997 2998 2999 3000 3000 3000 2999 2999 2999 2998 2998 2998 2997 2996 2995 2994 2993 2992 2991 2989 2988 2987 2986 2984 2982 2980 2978 2976 2974 2972 2971 2969 2968 2966
2935 2938 2940 2943 2947 2951 2957 2958 2961 2964 2970 2975 2979 2982 2985 2988 2990 2992 2993 2995 2996 2996 2996 2997 2996 2996 2996 2996 2995 2995 2995 2995 2994 2993 2992 2991 2990 2989 2988 2987 2986 2985 2984 2982 2980 2978 2977 2975 2973 2972 2970 2969 2968 2967
2940 2942 2944 2946 2949 2953 2959 2962 2965 2968 2971 2976 2979 2982 2985 2988 2990 2991 2991 2992 2993 2993 2994 2993 2993 2993 2993 2993 2993 2993 2992 2991 2990 2990 2989 2988 2988 2987 2986 2985 2984 2983 2982 2981 2979 2978 2977 2975 2973 2972 2970 2969 2968 2967
2947 2947 2950 2951 2955 2959 2961 2965 2968 2971 2974 2978 2981 2983 2985 2987 2988 2989 2990 2990 2991 2991 2991 2991 2991 2991 2991 2991 2991 2990 2989 2988 2988 2987 2987 2986 2985 2984 2984 2983 2983 2982 2981 2980 2979 2978 2977 2975 2974 2973 2971 2970 2969 2968
2948 2952 2955 2958 2961 2964 2966 2969 2972 2975 2977 2979 2981 2983 2984 2985 2986 2987 2988 2988 2989 2989 2990 2990 2990 2990 2989 2989 2988 2987 2986 2986 2985 2985 2984 2984 2984 2983 2983 2983 2982 2982 2981 2980 2979 2978 2977 2976 2975 2974 2973 2972 2971 2970
2953 2958 2961 2963 2965 2967 2969 2972 2975 2977 2978 2980 2982 2983 2984 2985 2985 2986 2987 2988 2988 2988 2988 2988 2988 2987 2986 2985 2984 2984 2983 2983 2983 2983 2983 2983 2982 2982 2982 2982 2981 2982 2981 2980 2980 2979 2978 2978 2977 2976 2976 2974 2973 2972
2959 2963 2966 2968 2969 2972 2973 2975 2977 2979 2981 2982 2984 2984 2984 2985 2986 2986 2986 2986 2986 2986 2986 2985 2984 2984 2983 2982 2982 2981 2981 2981 2981 2981 2981 2981 2981 2981 2981 2981 2981 2981 2981 2980 2980 2979 2979 2978 2978 2977 2976 2975 2974 2972
2965 2968 2970 2972 2973 2974 2976 2978 2979 2981 2982 2983 2983 2983 2984 2984 2984 2984 2984 2984 2983 2983 2982 2981 2981 2980 2980 2979 2979 2979 2979 2979 2979 2979 2979 2980 2980 2980 2980 2979 2979 2979 2980 2979 2979 2979 2978 2978 2977 2976 2976 2975 2973 2972
2970 2972 2973 2974 2975 2976 2978 2979 2980 2981 2982 2983 2983 2983 2982 2982 2981 2981 2980 2979 2979 2978 2978 2977 2977 2977 2977 2977 2976 2977 2977 2977 2977 2977 2977 2977 2978 2978 2978 2978 2978 2978 2978 2978 2978 2977 2977 2977 2976 2975 2975 2974 2973 2971
2971 2973 2974 2975 2976 2977 2979 2980 2980 2981 2981 2981 2981 2980 2979 2978 2977 2976 2975 2974 2974 2973 2973 2973 2974 2974 2974 2974 2973 2973 2974 2974 2974 2974 2975 2975 2975 2976 2976 2976 2976 2976 2976 2976 2976 2976 2976 2975 2975 2974 2973 2972 2971 2970
2972 2973 2975 2976 2977 2978 2978 2979 2979 2979 2979 2979 2978 2977 2975 2974 2973 2971 2969 2968 2968 2968 2969 2970 2970 2971 2971 2971 2971 2971 2971 2971 2972 2972 2972 2972 2972 2973 2973 2974 2974 2974 2974 2974 2973 2973 2973 2973 2972 2971 2970 2970 2969 2968
2972 2974 2974 2975 2976 2977 2977 2978 2977 2977 2977 2975 2974 2973 2972 2970 2968 2967 2966 2965 2965 2965 2966 2968 2969 2969 2970 2970 2969 2969 2969 2969 2968 2968 2968 2969 2969 2969 2970 2970 2970 2970 2970 2970 2970 2969 2969 2968 2968 2967 2966 2965 2964 2963